Find Starlink 35165

NORAD ID: 65750 Int'l Des: 2025-216 Owner: SPXS Country: US Constellation: starlink operational
LEOCIRCULAR

現在のビュー

3D地球を読み込み中...

About Starlink 35165

Starlink 35165 (NORAD 65750) is a starlink constellation satellite (v2 mini) launched Sep 25, 2025 by SPXS of US. It operates in LEO, CIRCULAR orbit with a mass of 575.00 kg.

次回通過

Passes for default location (London). Set your location on the main map for personalized predictions.

高度履歴

Loading altitude history...

軌道要素

1 65750U 25216S 26265.23957230 .00019645 00000-0 59134-3 0 9991
2 65750 53.1586 137.2874 0001117 81.7307 278.3822 15.34383211 56645
Epoch: Sep 22, 2026 • Age: 11 hours

現在のステータス

高度 466.2 km
遠地点 / 近地点 N/A
速度 7.64 km/s
衛星直下点 42.53°N, 12°E
打ち上げ日 Sep 25, 2025
運用期間 0.9 years
タイプ internet

技術仕様

分類 Payload
質量 575.00 kg
乾燥質量 530.00 kg
長さ 0.30 m
スパン 29.00 m
形状 ? Box + pan
製造者 SPXS
バスタイプ Starlink V2MO
フェーズステータス In Orbit
所有者/国 SPXS/US

Most Searched